Meteo pe oră la Bedford

Astăzi, 24 Octombrie, Sâmbătă

Timp Temperatura Precipitaţii Vânt Presiune Umiditate
00:00 +6°C° 0 mm 4 m/s 753 mmHg 86%
01:00 +6°C° 0 mm 4 m/s 753 mmHg 84%
02:00 +6°C° 0 mm 4 m/s 752 mmHg 82%
03:00 +6°C° 0 mm 5 m/s 752 mmHg 81%
04:00 +7°C° 0 mm 5 m/s 751 mmHg 81%
05:00 +7°C° 0 mm 6 m/s 751 mmHg 82%
06:00 +8°C° 0 mm 6 m/s 750 mmHg 83%
07:00 +9°C° 0 mm 7 m/s 750 mmHg 83%
08:00 +10°C° 0 mm 8 m/s 749 mmHg 83%
09:00 +11°C° 0 mm 8 m/s 749 mmHg 83%
10:00 +12°C° 0 mm 8 m/s 748 mmHg 82%
11:00 +13°C° 0 mm 8 m/s 747 mmHg 81%
12:00 +13°C° 0 mm 9 m/s 747 mmHg 81%
13:00 +15°C° 0.1 mm 9 m/s 746 mmHg 80%
14:00 +14°C° 0.1 mm 10 m/s 745 mmHg 80%
15:00 +14°C° 0.1 mm 10 m/s 744 mmHg 79%
16:00 +13°C° 0.6 mm 9 m/s 744 mmHg 82%
17:00 +13°C° 0.6 mm 9 m/s 744 mmHg 85%
18:00 +12°C° 0.6 mm 8 m/s 743 mmHg 87%
19:00 +11°C° 3.5 mm 6 m/s 743 mmHg 90%
20:00 +10°C° 3.5 mm 5 m/s 742 mmHg 93%
21:00 +10°C° 3.5 mm 3 m/s 741 mmHg 96%
22:00 +9°C° 0.7 mm 5 m/s 741 mmHg 93%
23:00 +9°C° 0.7 mm 7 m/s 741 mmHg 90%

Mâine, 25 Octombrie, Duminică

Timp Temperatura Precipitaţii Vânt Presiune Umiditate
00:00 +8°C° 0.7 mm 9 m/s 742 mmHg 87%
01:00 +8°C° 0.1 mm 7 m/s 742 mmHg 88%
02:00 +8°C° 0.1 mm 6 m/s 742 mmHg 89%
03:00 +7°C° 0.1 mm 4 m/s 743 mmHg 89%
04:00 +7°C° 0 mm 5 m/s 743 mmHg 89%
05:00 +7°C° 0 mm 5 m/s 743 mmHg 89%
06:00 +6°C° 0 mm 5 m/s 743 mmHg 88%
07:00 +7°C° 0 mm 6 m/s 744 mmHg 85%
08:00 +8°C° 0 mm 6 m/s 744 mmHg 82%
09:00 +9°C° 0 mm 7 m/s 744 mmHg 79%
10:00 +10°C° 0 mm 7 m/s 744 mmHg 76%
11:00 +10°C° 0 mm 7 m/s 743 mmHg 73%
12:00 +11°C° 0 mm 7 m/s 743 mmHg 70%
13:00 +11°C° 0.2 mm 6 m/s 743 mmHg 72%
14:00 +11°C° 0.2 mm 6 m/s 743 mmHg 73%
15:00 +10°C° 0.2 mm 6 m/s 743 mmHg 75%
16:00 +10°C° 0.4 mm 5 m/s 743 mmHg 78%
17:00 +9°C° 0.4 mm 5 m/s 743 mmHg 81%
18:00 +8°C° 0.4 mm 5 m/s 743 mmHg 84%
19:00 +8°C° 0 mm 5 m/s 743 mmHg 85%
20:00 +7°C° 0 mm 4 m/s 743 mmHg 86%
21:00 +7°C° 0 mm 4 m/s 743 mmHg 88%
22:00 +6°C° 0 mm 4 m/s 743 mmHg 88%
23:00 +6°C° 0 mm 5 m/s 743 mmHg 87%

Poimâine, 26 Octombrie, Luni

Timp Temperatura Precipitaţii Vânt Presiune Umiditate
00:00 +6°C° 0 mm 5 m/s 743 mmHg 87%
01:00 +6°C° 0 mm 5 m/s 743 mmHg 87%
02:00 +5°C° 0 mm 6 m/s 743 mmHg 86%
03:00 +5°C° 0 mm 6 m/s 743 mmHg 86%
04:00 +5°C° 0 mm 6 m/s 743 mmHg 86%
05:00 +5°C° 0 mm 6 m/s 743 mmHg 86%
06:00 +5°C° 0 mm 6 m/s 743 mmHg 86%
07:00 +7°C° 0 mm 6 m/s 743 mmHg 85%
08:00 +8°C° 0 mm 7 m/s 742 mmHg 83%
09:00 +9°C° 0 mm 8 m/s 742 mmHg 81%
10:00 +9°C° 0.1 mm 8 m/s 742 mmHg 80%
11:00 +10°C° 0.1 mm 8 m/s 742 mmHg 79%
12:00 +10°C° 0.1 mm 8 m/s 742 mmHg 78%
13:00 +10°C° 0.3 mm 7 m/s 742 mmHg 77%
14:00 +10°C° 0.3 mm 7 m/s 742 mmHg 76%
15:00 +10°C° 0.3 mm 6 m/s 742 mmHg 76%
16:00 +9°C° 0 mm 5 m/s 743 mmHg 79%
17:00 +8°C° 0 mm 5 m/s 744 mmHg 82%
18:00 +7°C° 0 mm 5 m/s 744 mmHg 85%
19:00 +7°C° 0 mm 5 m/s 744 mmHg 86%
20:00 +7°C° 0 mm 5 m/s 745 mmHg 88%
21:00 +6°C° 0 mm 5 m/s 745 mmHg 89%
22:00 +6°C° 0 mm 5 m/s 745 mmHg 89%
23:00 +6°C° 0 mm 5 m/s 745 mmHg 90%

, 27 Octombrie, Marţi

Timp Temperatura Precipitaţii Vânt Presiune Umiditate
00:00 +6°C° 0 mm 5 m/s 745 mmHg 90%
01:00 +6°C° 0 mm 5 m/s 745 mmHg 90%
02:00 +5°C° 0 mm 5 m/s 745 mmHg 90%
03:00 +5°C° 0 mm 5 m/s 745 mmHg 90%
04:00 +5°C° 0 mm 5 m/s 746 mmHg 90%
05:00 +5°C° 0 mm 4 m/s 746 mmHg 90%
06:00 +5°C° 0 mm 4 m/s 746 mmHg 90%
07:00 +6°C° 0 mm 4 m/s 746 mmHg 87%
08:00 +6°C° 0 mm 4 m/s 746 mmHg 85%
09:00 +7°C° 0 mm 5 m/s 745 mmHg 82%
10:00 +8°C° 0.2 mm 5 m/s 745 mmHg 84%
11:00 +8°C° 0.2 mm 6 m/s 744 mmHg 86%
12:00 +9°C° 0.2 mm 7 m/s 743 mmHg 88%
13:00 +9°C° 0.6 mm 7 m/s 742 mmHg 89%
14:00 +10°C° 0.6 mm 8 m/s 741 mmHg 90%
15:00 +10°C° 0.6 mm 9 m/s 741 mmHg 90%
16:00 +10°C° 0.6 mm 8 m/s 741 mmHg 87%
17:00 +9°C° 0.6 mm 8 m/s 741 mmHg 83%
18:00 +8°C° 0.6 mm 7 m/s 741 mmHg 80%
19:00 +8°C° 0 mm 6 m/s 742 mmHg 81%
20:00 +7°C° 0 mm 6 m/s 742 mmHg 82%
21:00 +5°C° 0 mm 6 m/s 743 mmHg 83%
22:00 +5°C° 0 mm 6 m/s 743 mmHg 83%
23:00 +5°C° 0 mm 6 m/s 743 mmHg 83%

27 Octombrie, Marţi

Timp Temperatura Precipitaţii Vânt Presiune Umiditate
00:00 +6°C° 0 mm 5 m/s 745 mmHg 90%
01:00 +6°C° 0 mm 5 m/s 745 mmHg 90%
02:00 +5°C° 0 mm 5 m/s 745 mmHg 90%
03:00 +5°C° 0 mm 5 m/s 745 mmHg 90%
04:00 +5°C° 0 mm 5 m/s 746 mmHg 90%
05:00 +5°C° 0 mm 4 m/s 746 mmHg 90%
06:00 +5°C° 0 mm 4 m/s 746 mmHg 90%
07:00 +6°C° 0 mm 4 m/s 746 mmHg 87%
08:00 +6°C° 0 mm 4 m/s 746 mmHg 85%
09:00 +7°C° 0 mm 5 m/s 745 mmHg 82%
10:00 +8°C° 0.2 mm 5 m/s 745 mmHg 84%
11:00 +8°C° 0.2 mm 6 m/s 744 mmHg 86%
12:00 +9°C° 0.2 mm 7 m/s 743 mmHg 88%
13:00 +9°C° 0.6 mm 7 m/s 742 mmHg 89%
14:00 +10°C° 0.6 mm 8 m/s 741 mmHg 90%
15:00 +10°C° 0.6 mm 9 m/s 741 mmHg 90%
16:00 +10°C° 0.6 mm 8 m/s 741 mmHg 87%
17:00 +9°C° 0.6 mm 8 m/s 741 mmHg 83%
18:00 +8°C° 0.6 mm 7 m/s 741 mmHg 80%
19:00 +8°C° 0 mm 6 m/s 742 mmHg 81%
20:00 +7°C° 0 mm 6 m/s 742 mmHg 82%
21:00 +5°C° 0 mm 6 m/s 743 mmHg 83%
22:00 +5°C° 0 mm 6 m/s 743 mmHg 83%
23:00 +5°C° 0 mm 6 m/s 743 mmHg 83%

28 Octombrie, Miercuri

Timp Temperatura Precipitaţii Vânt Presiune Umiditate
00:00 +5°C° 0 mm 6 m/s 743 mmHg 83%
01:00 +5°C° 0 mm 6 m/s 743 mmHg 84%
02:00 +5°C° 0 mm 6 m/s 743 mmHg 84%
03:00 +7°C° 0 mm 6 m/s 742 mmHg 85%
04:00 +7°C° 0 mm 6 m/s 742 mmHg 85%
05:00 +6°C° 0 mm 7 m/s 742 mmHg 84%
06:00 +6°C° 0 mm 7 m/s 741 mmHg 84%
07:00 +8°C° 0 mm 7 m/s 741 mmHg 83%
08:00 +7°C° 0 mm 8 m/s 741 mmHg 82%
09:00 +7°C° 0 mm 8 m/s 741 mmHg 80%
10:00 +8°C° 0.2 mm 9 m/s 741 mmHg 79%
11:00 +8°C° 0.2 mm 9 m/s 741 mmHg 78%
12:00 +8°C° 0.2 mm 9 m/s 741 mmHg 77%
13:00 +8°C° 0.3 mm 9 m/s 741 mmHg 78%
14:00 +8°C° 0.3 mm 9 m/s 741 mmHg 78%
15:00 +8°C° 0.3 mm 10 m/s 741 mmHg 79%
16:00 +8°C° 0.8 mm 10 m/s 741 mmHg 80%
17:00 +8°C° 0.8 mm 10 m/s 741 mmHg 81%
18:00 +7°C° 0.8 mm 10 m/s 741 mmHg 82%
19:00 +8°C° 0.1 mm 11 m/s 741 mmHg 81%
20:00 +8°C° 0.1 mm 11 m/s 742 mmHg 79%
21:00 +8°C° 0.1 mm 11 m/s 742 mmHg 78%
22:00 +8°C° 0 mm 11 m/s 743 mmHg 77%
23:00 +8°C° 0 mm 11 m/s 744 mmHg 76%

29 Octombrie, Joi

Timp Temperatura Precipitaţii Vânt Presiune Umiditate
00:00 +8°C° 0 mm 11 m/s 744 mmHg 76%
01:00 +8°C° 0 mm 10 m/s 745 mmHg 77%
02:00 +7°C° 0 mm 10 m/s 746 mmHg 78%
03:00 +7°C° 0 mm 9 m/s 747 mmHg 80%
04:00 +7°C° 0 mm 9 m/s 747 mmHg 80%
05:00 +7°C° 0 mm 8 m/s 747 mmHg 80%
06:00 +7°C° 0 mm 8 m/s 748 mmHg 80%
07:00 +8°C° 0.1 mm 9 m/s 748 mmHg 82%
08:00 +9°C° 0.1 mm 10 m/s 747 mmHg 84%
09:00 +11°C° 0.1 mm 10 m/s 747 mmHg 86%
10:00 +11°C° 0.2 mm 11 m/s 747 mmHg 87%
11:00 +12°C° 0.2 mm 11 m/s 747 mmHg 87%
12:00 +12°C° 0.2 mm 11 m/s 746 mmHg 88%
13:00 +12°C° 0.8 mm 11 m/s 746 mmHg 88%
14:00 +13°C° 0.8 mm 11 m/s 746 mmHg 89%
15:00 +13°C° 0.8 mm 11 m/s 746 mmHg 89%
16:00 +13°C° 0.5 mm 10 m/s 747 mmHg 89%
17:00 +13°C° 0.5 mm 10 m/s 747 mmHg 88%
18:00 +13°C° 0.5 mm 10 m/s 747 mmHg 88%
19:00 +13°C° 0.2 mm 9 m/s 748 mmHg 88%
20:00 +12°C° 0.2 mm 8 m/s 749 mmHg 87%
21:00 +12°C° 0.2 mm 8 m/s 749 mmHg 87%
22:00 +12°C° 0.6 mm 7 m/s 749 mmHg 89%
23:00 +11°C° 0.6 mm 6 m/s 749 mmHg 90%
Arată mai mult

Formular de consimțământ

Meteoprog și furnizorii noștri de servicii pot stoca și accesa date personale, precum cookies, identificatori de dispozitiv sau alte tehnologii similare pe dispozitivul dumneavoastră și procesa astfel de date pentru a personaliza conținutul și reclamele, dar și pentru a oferi caracteristici de social media și pentru a analiza traficul.

  • Stocarea și/sau accesarea informațiilor pe dispozitivul dumneavoastră

    Cookies, identificatori de dispozitiv sau alte informații pot fi stocate sau accesate pe dispozitiv în scopurile indicate mai sus.

  • Reclame și conținut personalizat, evaluarea reclamelor și a conținutului, informații despre audiențe și dezvoltarea produselor

    Reclamele și conținutul pot fi personalizate pe baza unui profil. Pot fi adăugate date suplimentare pentru a personaliza mai bine reclamele și conținutul. Performanța reclamelor și conținutului poate fi măsurată. Pot fi obținute informații despre utilizatorii care au văzut reclamele și conținutul. Aceste date pot fi utilizate pentru a dezvolta sau îmbunătăți experiența utilizatorilor, sistemele și software-ul.

Dând clic pe ‘Sunt de acord’, permiteți utilizarea cookie-urilor menționate, a identificatorilor de dispozitiv, balizelor web sau altor tehnologii similare. Setările pot fi modificate din browser-ul dispozitivului dumneavoastră.

În anumite scopuri, interesele legitime pot prima asupra consimțământului. Puteți citi mai multe informații în acest sens în Politica privind Confidențialitatea Datelor și Cookie.